RH
65 73 74 69 68 68 71 72 72 71 69 64 63 64 64 60 51 44 41 37 39 45 46 45 45 39 32 32 36 40 46 50 52 54 50 45 42 39 34 30 30 26 20 16 13 12 10 11 11 11 11 12 12 13 14 14 14 13 14 15 15 16 17 18 20 20 21 22 22 23 23 23 23 23 24 24 25 28 28 28 27 24 24 25 24 23
70 76 67 61 63 65 69 72 72 73 72 68 65 66 68 63 51 45 43 34 34 43 44 42 42 38 30 29 32 35 41 45 48 51 53 48 43 41 39 35 32 29 27 23 15 11 10 10 10 10 11 11 11 11 12 13 13 12 13 13 13 15 16 17 18 19 19 20 20 21 22 23 23 22 23 24 26 26 26 28 30 26 24 24 23 23
75 71 58 58 64 65 68 72 73 74 75 74 71 71 71 64 52 47 44 35 32 38 40 38 38 35 27 26 29 31 35 42 45 47 51 51 47 43 41 40 37 32 30 27 22 18 14 11 9 9 10 10 10 11 11 11 12 12 12 13 13 14 15 16 17 17 18 18 18 19 20 21 21 22 23 24 25 25 25 28 29 26 25 25 24 24
68 59 54 61 65 66 69 70 71 75 78 77 74 74 72 62 54 49 42 36 33 33 34 34 34 32 24 22 24 25 30 37 42 45 48 50 50 46 43 41 40 38 33 29 26 25 22 17 12 9 9 9 9 10 10 10 10 11 11 12 13 13 14 15 16 16 17 18 18 19 20 20 21 22 23 24 25 25 27 28 27 25 25 26 26 28
58 52 58 64 66 69 70 69 72 78 81 78 74 75 71 62 59 53 39 33 33 32 32 33 34 32 23 19 20 21 26 31 35 39 42 45 48 48 47 43 41 41 39 33 28 28 26 23 18 12 10 9 9 9 8 9 9 9 10 10 11 12 13 14 14 15 16 17 18 18 20 21 22 23 23 24 25 25 26 27 27 27 27 27 28 30
60 56 62 66 66 68 70 70 70 74 80 78 72 72 72 67 67 59 43 36 38 37 35 34 36 33 25 22 23 24 26 26 27 30 33 35 39 43 46 47 45 43 42 37 31 29 27 26 22 17 14 10 9 8 8 8 8 9 9 9 9 10 11 12 13 14 15 16 17 18 18 20 21 21 21 21 22 23 24 25 26 27 27 27 28 30
65 62 63 64 63 64 68 69 64 68 77 77 69 70 73 72 70 62 48 41 42 40 36 35 38 37 32 26 24 27 28 25 25 24 26 28 29 31 34 40 45 47 45 40 34 31 28 27 25 21 19 14 11 8 8 8 8 8 8 8 9 9 9 10 11 12 14 15 16 17 17 17 18 18 18 18 19 21 21 22 23 24 25 25 26 29
65 64 62 60 61 62 66 65 62 66 74 73 68 69 70 65 64 61 51 45 43 42 41 39 41 45 42 31 21 24 28 26 25 22 22 24 24 26 27 29 36 44 48 44 37 32 29 28 26 24 23 21 16 12 10 8 8 8 8 8 8 8 9 8 9 11 11 12 14 15 16 16 16 16 17 17 18 20 21 22 22 23 24 24 26 30
63 63 59 55 58 59 57 56 57 62 67 69 66 66 62 55 57 58 51 46 45 48 49 45 44 48 47 36 22 20 25 23 21 20 19 19 22 24 25 26 27 34 43 45 41 35 30 29 28 26 25 24 22 20 17 12 8 8 7 7 8 8 8 8 9 10 9 10 11 12 13 14 15 15 16 17 18 19 21 21 22 22 23 24 26 30
70 66 58 55 56 53 49 49 50 52 56 59 57 52 48 47 52 56 53 50 50 54 54 48 46 48 45 37 26 20 20 19 17 16 17 17 21 23 24 25 26 28 34 39 40 36 32 30 29 29 26 25 25 24 24 18 11 9 8 7 7 7 8 8 9 9 9 9 10 11 11 12 13 14 15 17 18 19 20 21 22 22 22 24 26 29
74 69 65 62 58 52 49 50 50 50 49 50 48 43 44 47 52 54 53 52 55 57 53 48 46 47 46 39 30 21 15 16 16 15 16 17 20 23 23 24 24 26 28 33 38 37 34 30 28 29 28 26 26 25 26 25 16 10 9 8 7 7 7 8 8 9 9 9 10 10 10 10 11 12 13 15 16 18 20 21 22 21 21 23 24 26
77 77 74 68 62 56 54 54 54 54 51 50 48 46 50 55 57 57 55 55 60 57 48 45 43 46 47 40 31 22 14 16 18 16 18 20 21 24 24 23 21 21 25 30 35 38 36 33 29 29 29 28 28 26 26 27 22 13 9 9 8 7 7 7 7 8 8 9 9 9 10 10 10 11 12 12 13 16 18 19 21 22 21 21 21 24
81 77 71 68 65 61 60 60 59 57 54 53 52 50 53 58 61 61 58 57 58 51 41 41 44 45 41 33 29 25 16 16 17 17 19 22 23 24 24 23 22 22 24 28 34 38 36 34 32 32 32 31 29 27 26 28 26 19 12 9 8 8 7 7 7 7 8 8 8 9 9 10 10 10 11 11 12 13 15 17 19 20 20 19 19 22
88 82 75 73 71 66 63 62 61 58 55 54 53 52 51 53 60 61 55 55 53 45 39 40 45 45 36 26 24 23 16 15 17 16 18 21 24 26 24 23 23 24 26 28 32 36 36 34 33 34 34 34 32 28 27 28 28 24 18 11 9 8 8 7 7 7 8 8 8 9 9 9 10 10 10 11 11 12 13 14 16 17 18 17 17 19
88 90 85 79 74 69 65 61 57 51 53 55 51 51 49 47 51 50 47 50 47 41 39 41 45 43 34 26 21 18 15 15 16 15 15 18 22 25 25 23 23 23 26 28 29 32 35 34 32 32 33 35 35 32 30 31 29 27 23 17 12 10 9 8 8 8 8 8 9 9 9 9 10 10 10 11 11 12 13 14 14 14 15 15 16 18
82 82 79 75 71 67 67 67 61 56 61 62 57 58 55 46 43 41 42 45 43 43 42 40 40 35 28 24 21 20 17 14 14 15 15 17 18 21 22 21 21 20 22 25 27 29 31 33 33 33 32 33 35 34 33 33 30 28 27 23 17 12 10 10 9 8 8 9 9 9 9 9 9 10 11 11 12 13 14 14 13 12 13 13 15 17
79 78 75 75 73 68 68 66 61 61 65 64 64 64 54 45 45 46 46 44 46 52 46 36 35 31 27 24 20 20 19 15 15 15 15 15 15 15 16 17 17 18 19 21 24 26 28 30 32 33 32 31 31 32 32 31 29 28 28 27 24 18 13 11 10 10 10 10 10 10 10 10 9 10 11 11 12 13 14 15 14 13 13 13 14 17
75 80 79 78 79 75 70 67 65 63 61 62 65 59 48 50 53 50 50 49 52 55 43 32 34 32 29 27 20 18 18 16 16 15 14 14 14 14 15 17 18 19 21 21 21 21 23 26 28 30 32 32 30 29 29 27 26 27 28 28 28 25 19 15 12 12 12 11 11 10 10 10 10 11 12 12 13 14 14 15 14 14 14 13 13 17
74 84 86 80 82 80 73 74 78 75 67 61 59 51 50 59 59 53 56 57 58 57 45 34 33 31 30 27 21 20 19 18 17 15 14 14 15 16 17 18 19 19 20 21 20 19 18 20 22 24 27 29 30 29 27 26 23 23 26 27 29 29 26 21 17 15 14 13 12 11 10 10 12 14 13 14 17 16 15 14 13 14 15 13 13 17
73 82 89 84 83 84 80 79 80 78 74 67 60 54 55 58 55 52 54 53 54 55 48 40 34 30 28 22 19 20 19 18 18 16 16 15 15 16 16 17 18 18 18 20 20 19 17 17 19 20 22 24 26 27 25 25 23 22 22 24 27 29 28 26 22 18 16 15 13 12 11 10 12 13 14 17 20 19 16 16 15 15 16 15 14 18
76 80 88 89 88 90 89 81 72 67 70 71 67 63 62 64 61 56 54 51 50 52 50 45 39 30 24 19 19 20 18 17 17 17 18 17 16 16 17 18 18 18 19 19 19 18 17 17 18 19 20 21 23 25 24 23 22 20 19 20 23 26 28 28 26 22 18 16 15 14 12 11 12 14 16 19 22 20 18 17 18 18 18 16 16 20
80 79 85 93 93 91 86 78 72 68 64 65 67 66 64 66 67 67 63 54 50 51 48 45 42 31 23 21 20 19 18 18 18 18 19 19 18 17 18 19 19 18 18 19 18 17 17 18 18 19 20 21 21 22 23 23 21 19 17 17 20 22 25 27 28 26 21 17 15 15 14 13 13 15 16 18 20 21 20 20 19 19 19 19 20 23
79 79 85 92 92 87 81 77 79 75 66 65 69 69 68 65 64 67 64 55 53 53 46 44 46 34 23 23 21 18 18 19 18 19 19 18 18 18 19 19 18 18 17 17 17 16 16 16 17 17 18 19 20 19 19 21 21 20 17 17 18 19 22 25 27 28 26 21 17 16 16 15 14 15 15 16 18 19 20 20 20 20 21 22 24 26
81 82 88 95 93 87 80 77 79 78 75 74 70 66 68 65 60 59 56 51 53 52 46 49 51 38 25 24 22 19 19 19 20 20 19 19 19 20 19 18 17 17 17 17 16 16 16 15 15 15 15 16 17 18 19 19 20 20 19 18 18 19 21 23 26 28 28 25 21 17 17 16 16 15 15 15 17 18 21 22 22 23 24 26 27 29
81 83 88 97 100 96 90 86 84 82 78 72 65 61 62 59 60 64 59 53 53 49 45 50 49 36 28 26 23 20 20 20 20 21 21 21 22 22 21 20 19 19 18 18 17 17 17 17 16 16 16 16 16 17 19 20 21 21 21 21 20 21 22 24 27 29 29 28 24 20 18 17 18 17 16 16 18 21 24 25 25 26 27 29 30 32
82 82 82 89 92 89 86 80 73 70 69 66 65 65 64 61 63 64 60 60 58 49 45 48 44 33 27 26 23 22 23 21 20 22 21 21 22 23 23 22 21 20 20 20 19 18 18 18 17 17 18 18 18 18 19 20 21 23 23 22 22 23 25 27 29 30 31 30 27 24 20 19 20 19 19 19 21 24 26 26 27 28 30 32 33 34
83 83 81 82 78 72 70 66 60 60 67 70 70 69 68 68 68 67 68 67 58 51 52 49 40 33 27 25 25 24 24 23 21 22 22 22 23 24 24 23 22 22 21 20 20 19 19 19 19 19 19 20 20 20 20 20 21 22 23 23 23 24 25 28 29 30 31 31 29 26 23 20 20 21 22 23 24 26 28 28 30 31 33 34 34 35
85 87 82 79 77 72 70 69 64 65 70 73 73 72 70 69 70 72 74 65 53 58 59 44 37 37 29 24 28 27 25 24 23 22 23 24 25 25 25 24 22 22 21 19 19 19 18 18 19 19 20 20 20 20 20 20 21 21 22 22 22 22 24 26 28 29 30 31 30 28 25 22 22 22 23 25 28 30 32 33 34 35 35 36 35 35
86 87 81 79 81 77 72 70 67 67 70 71 73 73 71 69 69 69 64 53 50 58 52 35 36 38 27 23 27 27 26 27 25 24 25 25 26 26 25 24 22 22 22 21 20 19 19 18 18 18 19 19 19 19 19 19 19 20 21 21 21 22 23 24 26 29 30 31 31 30 28 26 24 23 24 26 30 34 37 38 38 38 38 37 37 36
87 86 82 83 83 78 75 72 67 67 72 72 71 70 69 70 69 64 54 47 51 53 41 34 40 36 26 26 28 26 28 29 27 27 27 26 27 27 26 24 23 23 23 22 21 20 20 19 18 18 18 19 19 19 19 19 19 20 21 22 22 22 23 24 27 30 31 32 31 31 30 28 26 25 25 27 31 37 40 40 40 40 40 39 38 38
89 86 82 82 85 82 78 74 70 69 72 71 70 68 69 69 67 60 50 47 55 50 37 41 46 36 26 28 27 26 27 29 28 28 28 27 27 28 27 25 24 24 23 22 21 21 20 20 20 19 20 21 21 21 21 20 20 21 21 23 24 25 26 26 28 31 33 33 32 30 29 27 26 26 26 27 30 34 39 41 42 41 41 40 40 39
88 86 83 85 89 83 75 76 75 72 73 76 73 69 67 64 59 53 46 47 51 45 42 51 50 34 25 25 25 25 26 27 28 27 27 27 27 28 28 27 25 24 23 22 21 21 21 21 21 21 22 23 23 23 23 22 22 22 22 23 24 26 28 29 30 31 33 35 34 32 29 26 25 26 27 28 29 31 35 40 42 43 43 42 40 39
85 83 81 84 84 77 73 77 77 77 85 85 71 59 55 51 48 48 47 46 44 42 45 49 39 27 25 27 26 27 26 26 26 26 26 27 26 26 27 27 27 25 24 24 23 22 22 22 23 22 23 23 23 23 23 23 22 22 21 23 24 25 27 29 31 32 33 35 36 35 32 28 25 26 28 29 31 31 33 36 37 38 40 39 39 40
87 84 82 79 80 81 81 80 81 88 89 72 52 47 49 47 47 49 47 43 41 41 41 37 30 28 29 28 27 28 27 26 26 25 25 25 25 25 25 25 26 27 27 27 26 24 23 22 23 23 23 23 23 23 22 22 22 22 21 22 23 24 25 27 30 32 33 34 35 36 35 33 30 29 31 34 37 37 36 37 38 40 41 43 44 45
86 86 84 80 82 85 84 83 91 91 72 50 43 48 49 48 49 49 46 43 42 40 37 33 30 30 29 28 28 28 28 28 27 24 23 24 24 25 24 24 25 25 26 27 27 27 26 23 23 23 23 23 23 23 23 23 23 23 23 23 23 24 26 27 30 33 34 34 34 35 35 35 35 36 39 43 45 45 44 44 44 45 45 45 46 47
86 85 84 82 85 88 87 89 88 73 54 48 51 50 50 51 52 51 50 44 38 37 37 35 31 29 30 29 28 27 28 29 27 23 22 24 24 24 24 23 23 23 23 25 26 27 27 25 23 22 22 22 23 24 24 23 23 24 24 24 25 26 27 29 31 34 35 35 35 35 35 35 36 40 45 49 50 49 50 51 50 48 45 44 46 49
90 86 84 86 86 87 88 85 74 63 61 59 52 46 47 48 45 47 48 40 35 37 37 33 30 31 32 30 28 28 29 30 27 22 22 24 24 23 23 22 22 22 22 23 25 26 27 27 25 24 22 22 22 24 24 23 23 24 24 24 25 27 29 33 35 37 38 38 38 38 38 38 38 40 46 52 54 54 54 56 56 55 53 51 53 56
94 90 87 89 85 83 86 85 79 77 70 52 40 41 44 43 43 47 50 42 35 36 34 29 30 32 33 32 31 31 31 30 25 20 22 25 23 22 22 22 22 23 23 23 24 24 25 26 26 26 25 23 21 23 24 25 25 25 26 27 28 29 32 36 41 42 42 41 41 41 41 41 41 41 44 50 55 56 55 56 57 58 58 59 60 62
96 93 89 90 88 86 87 86 81 75 57 38 36 42 45 45 46 53 58 46 32 31 32 29 30 32 32 32 32 32 32 29 22 20 24 25 22 22 23 23 23 23 23 23 23 22 23 24 24 26 26 25 23 23 24 26 26 26 28 30 31 31 33 37 41 42 44 45 45 45 45 46 45 44 46 49 53 57 58 58 59 60 61 62 62 64
99 97 95 95 92 88 87 83 75 63 47 39 42 44 45 46 48 58 62 42 24 27 31 28 29 31 30 30 30 30 28 24 21 22 23 22 22 22 22 22 22 22 22 22 21 21 22 23 23 24 25 26 26 25 26 27 28 28 28 30 32 33 34 36 38 40 44 45 46 48 49 50 50 49 49 51 54 57 59 61 62 63 64 65 66 66
98 97 97 97 93 89 88 83 72 58 45 42 46 45 45 48 52 55 48 30 22 28 27 26 30 29 28 29 28 26 23 21 21 24 23 22 23 22 22 22 22 21 21 21 20 21 22 22 23 24 25 26 27 27 28 29 30 30 29 30 33 34 34 35 37 41 44 45 47 48 50 52 54 55 55 56 57 59 62 65 68 69 70 70 70 70
98 98 98 98 95 91 86 80 74 62 45 42 49 48 45 47 47 41 30 24 26 27 23 25 29 27 26 27 25 23 22 21 22 24 23 22 22 22 22 23 22 22 22 21 21 22 23 23 23 24 25 26 26 27 29 30 33 33 32 32 34 34 35 36 38 41 44 46 48 50 51 52 54 56 59 60 61 64 67 69 71 73 73 74 74 74
88 91 95 93 90 91 91 87 82 65 44 39 47 46 40 38 35 30 29 30 29 26 25 26 27 25 26 25 23 23 23 22 22 23 22 23 23 23 24 23 23 23 22 22 22 23 22 23 23 24 24 24 25 26 28 30 33 35 35 35 35 36 36 38 40 42 45 47 50 52 52 54 55 57 60 63 65 67 70 71 73 75 75 75 76 76
86 87 88 85 84 89 89 80 66 51 39 37 40 38 34 33 30 30 34 35 32 30 28 26 25 25 25 23 22 23 22 22 22 22 22 23 24 24 25 24 23 23 22 22 22 22 22 23 23 23 24 24 24 25 27 30 33 36 37 37 38 39 39 40 43 44 46 49 51 53 54 55 56 58 60 62 65 67 69 70 72 73 74 75 75 75
83 76 74 73 74 74 69 58 48 44 43 41 37 36 37 37 34 34 35 35 35 33 29 26 26 26 24 22 22 21 21 22 22 22 23 23 23 23 24 23 23 23 22 22 22 22 23 23 23 25 25 26 27 28 29 32 34 36 38 39 39 40 41 42 44 45 46 48 50 52 54 54 55 57 58 60 61 62 63 64 65 66 68 70 72 73
72 70 71 72 73 71 65 56 49 47 46 43 39 39 40 38 37 37 36 35 36 34 31 28 27 24 23 22 21 21 21 22 22 22 22 22 21 22 22 21 22 22 23 23 23 23 23 23 24 25 26 27 28 29 31 33 35 36 38 38 39 40 40 41 43 44 45 47 48 50 51 52 53 55 56 57 58 58 58 59 59 61 62 64 67 69
75 77 79 77 78 79 70 57 49 49 48 46 42 40 39 37 36 36 36 36 36 35 34 31 28 26 24 22 20 22 22 22 22 22 21 21 21 20 20 21 22 22 23 24 24 24 24 24 25 26 27 28 29 30 32 33 34 35 36 37 38 39 39 40 41 42 44 45 46 48 49 50 51 52 54 55 56 57 58 58 58 59 59 59 60 61
71 76 78 75 75 73 62 51 52 53 49 45 43 41 40 39 37 36 37 38 37 36 35 32 28 26 24 22 22 23 22 22 21 20 19 20 20 20 21 22 23 24 25 26 26 26 25 25 25 26 28 30 31 32 34 34 35 36 37 37 38 38 39 40 40 41 43 44 44 45 45 46 47 48 49 50 51 52 53 53 54 54 54 55 56 57
67 76 76 72 72 69 59 55 58 56 49 44 41 40 40 41 40 40 40 39 37 35 31 27 25 23 22 22 23 22 22 22 20 19 19 19 19 20 22 22 23 25 26 27 28 28 27 27 27 28 30 32 33 33 34 34 34 34 34 34 34 34 35 36 36 37 38 38 38 39 38 39 40 41 42 44 45 47 49 50 51 53 54 55 56 57
69 76 71 71 75 68 54 48 49 47 43 39 39 41 43 43 44 44 43 41 38 35 30 26 24 23 22 22 22 22 22 22 21 21 20 19 19 21 22 23 24 26 27 28 28 27 27 27 27 28 29 30 30 31 31 31 31 31 32 32 32 32 32 33 33 33 34 34 34 35 36 37 38 39 41 43 45 47 49 51 53 54 55 57 58 59
64 66 61 62 62 49 36 36 40 41 40 39 41 46 46 46 47 47 43 40 38 35 31 28 26 24 23 23 23 23 22 22 22 22 22 21 21 22 23 24 26 26 26 27 27 26 26 26 26 26 27 28 28 29 30 31 32 33 34 34 34 34 34 33 34 34 34 35 36 36 37 38 40 41 43 45 46 47 49 50 52 53 55 57 59 60